Donnes mto: Actuelle mercredi, 13/12/2017 09:55
Date Horaire Temp. E. Hum. E. P.atmo. Pluie Vent Direction Direction Ensoleilleme Ev.Tr. UV Solaire P. de rose Temp au vent Rafales
13/12/2017 09:55 2,6 C 91 % 1019,3 hPa 0,0 mm 1,2 km/h (1 Bft) SE 138 0 min 0,000 mm 0,0 UV-I 47 W/m 1,3 C 2,6 C 4,8 km/h (1 Bft)
13/12/2017 09:50 2,5 C 92 % 1019,3 hPa 0,0 mm 1,1 km/h (1 Bft) SE 137 0 min 0,000 mm 0,0 UV-I 52 W/m 1,3 C 2,5 C 3,2 km/h (1 Bft)
13/12/2017 09:45 2,4 C 92 % 1019,4 hPa 0,0 mm 2,0 km/h (1 Bft) SE 137 0 min 0,000 mm 0,0 UV-I 25 W/m 1,2 C 2,4 C 4,8 km/h (1 Bft)
13/12/2017 09:40 2,3 C 92 % 1019,4 hPa 0,0 mm 2,6 km/h (1 Bft) S-SE 166 0 min 0,000 mm 0,0 UV-I 19 W/m 1,1 C 2,3 C 8,0 km/h (2 Bft)
13/12/2017 09:35 2,3 C 92 % 1019,4 hPa 0,0 mm 0,9 km/h (0 Bft) S-SE 165 0 min 0,000 mm 0,0 UV-I 24 W/m 1,1 C 2,3 C 4,8 km/h (1 Bft)
13/12/2017 09:30 2,3 C 92 % 1019,3 hPa 0,0 mm 1,7 km/h (1 Bft) E-SE 123 0 min 0,000 mm 0,0 UV-I 28 W/m 1,1 C 2,3 C 4,8 km/h (1 Bft)
13/12/2017 09:25 2,2 C 92 % 1019,3 hPa 0,0 mm 1,8 km/h (1 Bft) SE 136 0 min 0,000 mm 0,0 UV-I 35 W/m 1,0 C 2,2 C 8,0 km/h (2 Bft)
13/12/2017 09:20 2,2 C 92 % 1019,3 hPa 0,0 mm 1,6 km/h (1 Bft) SE 137 0 min 0,000 mm 0,0 UV-I 30 W/m 1,0 C 2,2 C 6,4 km/h (2 Bft)
13/12/2017 09:15 2,2 C 92 % 1019,3 hPa 0,0 mm 2,1 km/h (1 Bft) S-SE 150 0 min 0,000 mm 0,0 UV-I 23 W/m 1,0 C 2,2 C 6,4 km/h (2 Bft)
13/12/2017 09:10 2,1 C 93 % 1019,4 hPa 0,0 mm 2,5 km/h (1 Bft) SE 138 0 min 0,000 mm 0,0 UV-I 18 W/m 1,1 C 2,1 C 6,4 km/h (2 Bft)
13/12/2017 09:05 2,0 C 93 % 1019,4 hPa 0,0 mm 2,4 km/h (1 Bft) S-SE 150 0 min 0,000 mm 0,0 UV-I 17 W/m 1,0 C 2,0 C 9,7 km/h (2 Bft)
13/12/2017 09:00 1,9 C 93 % 1019,4 hPa 0,0 mm 1,9 km/h (1 Bft) SE 130 0 min 0,000 mm 0,0 UV-I 24 W/m 0,9 C 1,9 C 4,8 km/h (1 Bft)
13/12/2017 08:55 1,8 C 93 % 1019,4 hPa 0,0 mm 2,2 km/h (1 Bft) S-SE 148 0 min 0,000 mm 0,0 UV-I 18 W/m 0,8 C 1,8 C 6,4 km/h (2 Bft)
13/12/2017 08:50 1,8 C 93 % 1019,6 hPa 0,0 mm 1,5 km/h (1 Bft) SE 134 0 min 0,000 mm 0,0 UV-I 9 W/m 0,8 C 1,8 C 3,2 km/h (1 Bft)
13/12/2017 08:45 1,8 C 93 % 1019,8 hPa 0,0 mm 1,8 km/h (1 Bft) SE 146 0 min 0,000 mm 0,0 UV-I 6 W/m 0,8 C 1,8 C 6,4 km/h (2 Bft)
13/12/2017 08:40 1,8 C 93 % 1020,0 hPa 0,0 mm 1,1 km/h (1 Bft) S-SE 159 0 min 0,000 mm 0,0 UV-I 1 W/m 0,8 C 1,8 C 3,2 km/h (1 Bft)
13/12/2017 08:35 1,7 C 93 % 1020,1 hPa 0,0 mm 0,2 km/h (0 Bft) S 172 0 min 0,000 mm 0,0 UV-I 1 W/m 0,7 C 1,7 C 1,6 km/h (1 Bft)
13/12/2017 08:30 1,7 C 93 % 1020,0 hPa 0,0 mm 0,5 km/h (0 Bft) S 172 0 min 0,000 mm 0,0 UV-I 6 W/m 0,7 C 1,7 C 3,2 km/h (1 Bft)
13/12/2017 08:25 1,7 C 93 % 1019,9 hPa 0,0 mm 3,4 km/h (1 Bft) S-SE 164 0 min 0,000 mm 0,0 UV-I 6 W/m 0,7 C 1,7 C 11,3 km/h (2 Bft)
13/12/2017 08:20 1,7 C 93 % 1019,8 hPa 0,0 mm 2,9 km/h (1 Bft) SE 142 0 min 0,000 mm 0,0 UV-I 1 W/m 0,7 C 1,7 C 8,0 km/h (2 Bft)
13/12/2017 08:15 1,6 C 93 % 1019,9 hPa 0,0 mm 3,0 km/h (1 Bft) SE 137 0 min 0,000 mm 0,0 UV-I 0 W/m 0,6 C 1,6 C 6,4 km/h (2 Bft)
13/12/2017 08:10 1,6 C 93 % 1020,1 hPa 0,0 mm 3,0 km/h (1 Bft) E-SE 121 0 min 0,000 mm 0,0 UV-I 0 W/m 0,6 C 1,6 C 8,0 km/h (2 Bft)
13/12/2017 08:05 1,6 C 93 % 1020,2 hPa 0,0 mm 2,4 km/h (1 Bft) SE 127 0 min 0,000 mm 0,0 UV-I 0 W/m 0,6 C 1,6 C 9,7 km/h (2 Bft)
13/12/2017 08:00 1,5 C 93 % 1020,2 hPa 0,0 mm 3,0 km/h (1 Bft) E-SE 117 0 min 0,000 mm 0,0 UV-I 0 W/m 0,5 C 1,5 C 6,4 km/h (2 Bft)
13/12/2017 07:55 1,4 C 93 % 1020,1 hPa 0,0 mm 3,3 km/h (1 Bft) E-SE 105 0 min 0,000 mm 0,0 UV-I 0 W/m 0,4 C 1,4 C 8,0 km/h (2 Bft)
13/12/2017 07:50 1,4 C 93 % 1019,9 hPa 0,0 mm 3,0 km/h (1 Bft) E-SE 121 0 min 0,000 mm 0,0 UV-I 0 W/m 0,4 C 1,4 C 6,4 km/h (2 Bft)
13/12/2017 07:45 1,3 C 93 % 1020,1 hPa 0,0 mm 2,3 km/h (1 Bft) SE 133 0 min 0,000 mm 0,0 UV-I 0 W/m 0,3 C 1,3 C 4,8 km/h (1 Bft)
13/12/2017 07:40 1,3 C 93 % 1020,3 hPa 0,0 mm 1,2 km/h (1 Bft) SE 146 0 min 0,000 mm 0,0 UV-I 0 W/m 0,3 C 1,3 C 4,8 km/h (1 Bft)
13/12/2017 07:35 1,3 C 93 % 1020,4 hPa 0,0 mm 1,1 km/h (1 Bft) S-SE 150 0 min 0,000 mm 0,0 UV-I 0 W/m 0,3 C 1,3 C 6,4 km/h (2 Bft)
13/12/2017 07:30 1,3 C 93 % 1020,3 hPa 0,0 mm 2,3 km/h (1 Bft) SE 132 0 min 0,000 mm 0,0 UV-I 0 W/m 0,3 C 1,3 C 6,4 km/h (2 Bft)
13/12/2017 07:25 1,3 C 94 % 1020,3 hPa 0,0 mm 1,3 km/h (1 Bft) SE 130 0 min 0,000 mm 0,0 UV-I 0 W/m 0,4 C 1,3 C 3,2 km/h (1 Bft)
13/12/2017 07:20 1,3 C 94 % 1020,3 hPa 0,0 mm 1,7 km/h (1 Bft) SE 141 0 min 0,000 mm 0,0 UV-I 0 W/m 0,4 C 1,3 C 4,8 km/h (1 Bft)
13/12/2017 07:15 1,3 C 94 % 1020,3 hPa 0,0 mm 2,9 km/h (1 Bft) SE 134 0 min 0,000 mm 0,0 UV-I 0 W/m 0,4 C 1,3 C 8,0 km/h (2 Bft)
13/12/2017 07:10 1,3 C 94 % 1020,1 hPa 0,0 mm 2,4 km/h (1 Bft) S-SE 151 0 min 0,000 mm 0,0 UV-I 0 W/m 0,4 C 1,3 C 6,4 km/h (2 Bft)
13/12/2017 07:05 1,3 C 94 % 1020,2 hPa 0,0 mm 2,9 km/h (1 Bft) S 184 0 min 0,000 mm 0,0 UV-I 0 W/m 0,4 C 1,3 C 6,4 km/h (2 Bft)
13/12/2017 07:00 1,3 C 94 % 1020,2 hPa 0,0 mm 2,7 km/h (1 Bft) SE 138 0 min 0,000 mm 0,0 UV-I 0 W/m 0,4 C 1,3 C 6,4 km/h (2 Bft)
13/12/2017 06:55 1,3 C 94 % 1020,2 hPa 0,0 mm 2,5 km/h (1 Bft) SE 141 0 min 0,000 mm 0,0 UV-I 0 W/m 0,4 C 1,3 C 6,4 km/h (2 Bft)
13/12/2017 06:50 1,3 C 94 % 1020,1 hPa 0,0 mm 3,3 km/h (1 Bft) S 176 0 min 0,000 mm 0,0 UV-I 0 W/m 0,4 C 1,3 C 6,4 km/h (2 Bft)
13/12/2017 06:45 1,3 C 94 % 1020,2 hPa 0,0 mm 3,0 km/h (1 Bft) S-SE 157 0 min 0,000 mm 0,0 UV-I 0 W/m 0,4 C 1,3 C 6,4 km/h (2 Bft)
13/12/2017 06:40 1,2 C 94 % 1020,0 hPa 0,0 mm 3,2 km/h (1 Bft) SE 129 0 min 0,000 mm 0,0 UV-I 0 W/m 0,3 C 1,2 C 6,4 km/h (2 Bft)
13/12/2017 06:35 1,2 C 94 % 1020,2 hPa 0,0 mm 1,4 km/h (1 Bft) S-SE 149 0 min 0,000 mm 0,0 UV-I 0 W/m 0,3 C 1,2 C 4,8 km/h (1 Bft)
13/12/2017 06:30 1,2 C 94 % 1020,0 hPa 0,0 mm 2,6 km/h (1 Bft) SE 143 0 min 0,000 mm 0,0 UV-I 0 W/m 0,3 C 1,2 C 6,4 km/h (2 Bft)
13/12/2017 06:25 1,2 C 94 % 1020,1 hPa 0,0 mm 1,5 km/h (1 Bft) SE 125 0 min 0,000 mm 0,0 UV-I 0 W/m 0,3 C 1,2 C 4,8 km/h (1 Bft)
13/12/2017 06:20 1,2 C 94 % 1020,1 hPa 0,0 mm 1,7 km/h (1 Bft) SE 145 0 min 0,000 mm 0,0 UV-I 0 W/m 0,3 C 1,2 C 4,8 km/h (1 Bft)
13/12/2017 06:15 1,2 C 94 % 1020,1 hPa 0,0 mm 1,8 km/h (1 Bft) S-SE 155 0 min 0,000 mm 0,0 UV-I 0 W/m 0,3 C 1,2 C 8,0 km/h (2 Bft)
13/12/2017 06:10 1,2 C 94 % 1020,0 hPa 0,0 mm 1,0 km/h (0 Bft) SE 140 0 min 0,000 mm 0,0 UV-I 0 W/m 0,3 C 1,2 C 4,8 km/h (1 Bft)
13/12/2017 06:05 1,2 C 94 % 1020,0 hPa 0,0 mm 3,4 km/h (1 Bft) SE 140 0 min 0,000 mm 0,0 UV-I 0 W/m 0,3 C 1,2 C 8,0 km/h (2 Bft)
13/12/2017 06:00 1,2 C 94 % 1019,9 hPa 0,0 mm 1,7 km/h (1 Bft) S-SE 148 0 min 0,000 mm 0,0 UV-I 0 W/m 0,3 C 1,2 C 6,4 km/h (2 Bft)
13/12/2017 05:55 1,2 C 94 % 1019,8 hPa 0,0 mm 2,5 km/h (1 Bft) S-SE 158 0 min 0,000 mm 0,0 UV-I 0 W/m 0,3 C 1,2 C 8,0 km/h (2 Bft)
13/12/2017 05:50 1,2 C 94 % 1020,0 hPa 0,0 mm 3,0 km/h (1 Bft) S-SE 156 0 min 0,000 mm 0,0 UV-I 0 W/m 0,3 C 1,2 C 6,4 km/h (2 Bft)
13/12/2017 05:45 1,2 C 94 % 1020,1 hPa 0,0 mm 1,7 km/h (1 Bft) S 173 0 min 0,000 mm 0,0 UV-I 0 W/m 0,3 C 1,2 C 6,4 km/h (2 Bft)
13/12/2017 05:40 1,2 C 94 % 1020,3 hPa 0,0 mm 1,2 km/h (1 Bft) SE 146 0 min 0,000 mm 0,0 UV-I 0 W/m 0,3 C 1,2 C 3,2 km/h (1 Bft)
13/12/2017 05:35 1,2 C 94 % 1020,4 hPa 0,0 mm 0,6 km/h (0 Bft) SE 146 0 min 0,000 mm 0,0 UV-I 0 W/m 0,3 C 1,2 C 3,2 km/h (1 Bft)
13/12/2017 05:30 1,2 C 94 % 1020,5 hPa 0,0 mm 0,0 km/h (0 Bft) S-SE 149 0 min 0,000 mm 0,0 UV-I 0 W/m 0,3 C 1,2 C 0,0 km/h (0 Bft)
13/12/2017 05:25 1,3 C 94 % 1020,5 hPa 0,0 mm 0,0 km/h (0 Bft) S-SE 150 0 min 0,000 mm 0,0 UV-I 0 W/m 0,4 C 1,3 C 0,0 km/h (0 Bft)
13/12/2017 05:20 1,3 C 94 % 1020,5 hPa 0,0 mm 1,2 km/h (1 Bft) S-SE 151 0 min 0,000 mm 0,0 UV-I 0 W/m 0,4 C 1,3 C 3,2 km/h (1 Bft)
13/12/2017 05:15 1,5 C 94 % 1020,6 hPa 0,0 mm 1,3 km/h (1 Bft) S-SE 151 0 min 0,000 mm 0,0 UV-I 0 W/m 0,6 C 1,5 C 4,8 km/h (1 Bft)
13/12/2017 05:10 1,6 C 94 % 1020,7 hPa 0,0 mm 0,1 km/h (0 Bft) S-SE 152 0 min 0,000 mm 0,0 UV-I 0 W/m 0,7 C 1,6 C 1,6 km/h (1 Bft)
13/12/2017 05:05 1,7 C 94 % 1020,8 hPa 0,0 mm 0,0 km/h (0 Bft) S-SE 157 0 min 0,000 mm 0,0 UV-I 0 W/m 0,8 C 1,7 C 3,2 km/h (1 Bft)
13/12/2017 05:00 1,7 C 94 % 1020,8 hPa 0,0 mm 1,6 km/h (1 Bft) S-SE 157 0 min 0,000 mm 0,0 UV-I 0 W/m 0,8 C 1,7 C 3,2 km/h (1 Bft)
13/12/2017 04:55 1,8 C 94 % 1020,9 hPa 0,0 mm 0,0 km/h (0 Bft) S-SE 157 0 min 0,000 mm 0,0 UV-I 0 W/m 0,9 C 1,8 C 3,2 km/h (1 Bft)
13/12/2017 04:50 1,8 C 94 % 1021,0 hPa 0,0 mm 0,0 km/h (0 Bft) S-SE 157 0 min 0,000 mm 0,0 UV-I 0 W/m 0,9 C 1,8 C 3,2 km/h (1 Bft)
13/12/2017 04:45 1,8 C 94 % 1021,2 hPa 0,0 mm 0,0 km/h (0 Bft) S-SE 157 0 min 0,000 mm 0,0 UV-I 0 W/m 0,9 C 1,8 C 3,2 km/h (1 Bft)
13/12/2017 04:40 1,8 C 94 % 1021,3 hPa 0,0 mm 0,0 km/h (0 Bft) S-SE 157 0 min 0,000 mm 0,0 UV-I 0 W/m 0,9 C 1,8 C 3,2 km/h (1 Bft)
13/12/2017 04:35 1,8 C 94 % 1021,2 hPa 0,0 mm 0,0 km/h (0 Bft) S-SE 157 0 min 0,000 mm 0,0 UV-I 0 W/m 0,9 C 1,8 C 1,6 km/h (1 Bft)
13/12/2017 04:30 1,8 C 94 % 1021,2 hPa 0,0 mm 0,0 km/h (0 Bft) S-SE 157 0 min 0,000 mm 0,0 UV-I 0 W/m 0,9 C 1,8 C 1,6 km/h (1 Bft)
13/12/2017 04:25 1,8 C 94 % 1021,1 hPa 0,0 mm 1,6 km/h (1 Bft) S-SE 157 0 min 0,000 mm 0,0 UV-I 0 W/m 0,9 C 1,8 C 4,8 km/h (1 Bft)
13/12/2017 04:20 1,9 C 94 % 1021,3 hPa 0,0 mm 0,0 km/h (0 Bft) S-SE 157 0 min 0,000 mm 0,0 UV-I 0 W/m 1,0 C 1,9 C 3,2 km/h (1 Bft)
13/12/2017 04:15 1,9 C 94 % 1021,2 hPa 0,0 mm 0,0 km/h (0 Bft) N 0 0 min 0,000 mm 0,0 UV-I 0 W/m 1,0 C 1,9 C 0,0 km/h (0 Bft)
13/12/2017 04:10 1,9 C 94 % 1021,1 hPa 0,0 mm 0,0 km/h (0 Bft) S-SE 157 0 min 0,000 mm 0,0 UV-I 0 W/m 1,0 C 1,9 C 1,6 km/h (1 Bft)
13/12/2017 04:05 1,8 C 94 % 1021,1 hPa 0,0 mm 0,0 km/h (0 Bft) S-SE 157 0 min 0,000 mm 0,0 UV-I 0 W/m 0,9 C 1,8 C 3,2 km/h (1 Bft)
13/12/2017 04:00 1,8 C 94 % 1021,0 hPa 0,0 mm 1,6 km/h (1 Bft) SE 135 0 min 0,000 mm 0,0 UV-I 0 W/m 0,9 C 1,8 C 4,8 km/h (1 Bft)
13/12/2017 03:55 1,8 C 94 % 1021,0 hPa 0,0 mm 1,6 km/h (1 Bft) SE 135 0 min 0,000 mm 0,0 UV-I 0 W/m 0,9 C 1,8 C 4,8 km/h (1 Bft)
13/12/2017 03:50 1,8 C 94 % 1021,0 hPa 0,0 mm 1,6 km/h (1 Bft) SE 135 0 min 0,000 mm 0,0 UV-I 0 W/m 0,9 C 1,8 C 3,2 km/h (1 Bft)
13/12/2017 03:45 1,8 C 94 % 1021,1 hPa 0,0 mm 0,0 km/h (0 Bft) SE 135 0 min 0,000 mm 0,0 UV-I 0 W/m 0,9 C 1,8 C 1,6 km/h (1 Bft)
13/12/2017 03:40 1,8 C 94 % 1021,1 hPa 0,0 mm 0,0 km/h (0 Bft) SE 135 0 min 0,000 mm 0,0 UV-I 0 W/m 0,9 C 1,8 C 1,6 km/h (1 Bft)
13/12/2017 03:35 1,8 C 94 % 1021,2 hPa 0,0 mm 0,0 km/h (0 Bft) SE 135 0 min 0,000 mm 0,0 UV-I 0 W/m 0,9 C 1,8 C 1,6 km/h (1 Bft)
13/12/2017 03:30 1,8 C 94 % 1021,2 hPa 0,0 mm 0,0 km/h (0 Bft) SE 135 0 min 0,000 mm 0,0 UV-I 0 W/m 0,9 C 1,8 C 3,2 km/h (1 Bft)
13/12/2017 03:25 1,8 C 94 % 1021,2 hPa 0,0 mm 1,6 km/h (1 Bft) SE 135 0 min 0,000 mm 0,0 UV-I 0 W/m 0,9 C 1,8 C 3,2 km/h (1 Bft)
13/12/2017 03:20 1,8 C 94 % 1021,2 hPa 0,0 mm 1,6 km/h (1 Bft) SE 135 0 min 0,000 mm 0,0 UV-I 0 W/m 0,9 C 1,8 C 3,2 km/h (1 Bft)
13/12/2017 03:15 1,7 C 94 % 1021,3 hPa 0,0 mm 1,6 km/h (1 Bft) SE 135 0 min 0,000 mm 0,0 UV-I 0 W/m 0,8 C 1,7 C 3,2 km/h (1 Bft)
13/12/2017 03:10 1,7 C 94 % 1021,3 hPa 0,0 mm 0,0 km/h (0 Bft) N 0 0 min 0,000 mm 0,0 UV-I 0 W/m 0,8 C 1,7 C 0,0 km/h (0 Bft)
13/12/2017 03:05 1,7 C 94 % 1021,2 hPa 0,0 mm 0,0 km/h (0 Bft) S-SE 157 0 min 0,000 mm 0,0 UV-I 0 W/m 0,8 C 1,7 C 1,6 km/h (1 Bft)
13/12/2017 03:00 1,7 C 94 % 1021,1 hPa 0,0 mm 0,0 km/h (0 Bft) S-SE 157 0 min 0,000 mm 0,0 UV-I 0 W/m 0,8 C 1,7 C 3,2 km/h (1 Bft)
13/12/2017 02:55 1,7 C 94 % 1021,1 hPa 0,0 mm 0,0 km/h (0 Bft) N 0 0 min 0,000 mm 0,0 UV-I 0 W/m 0,8 C 1,7 C 0,0 km/h (0 Bft)
13/12/2017 02:50 1,6 C 94 % 1021,1 hPa 0,0 mm 0,0 km/h (0 Bft) N 0 0 min 0,000 mm 0,0 UV-I 0 W/m 0,7 C 1,6 C 0,0 km/h (0 Bft)
13/12/2017 02:45 1,6 C 94 % 1021,1 hPa 0,0 mm 1,6 km/h (1 Bft) S-SE 157 0 min 0,000 mm 0,0 UV-I 0 W/m 0,7 C 1,6 C 3,2 km/h (1 Bft)
13/12/2017 02:40 1,6 C 94 % 1021,0 hPa 0,0 mm 0,0 km/h (0 Bft) S-SE 157 0 min 0,000 mm 0,0 UV-I 0 W/m 0,7 C 1,6 C 3,2 km/h (1 Bft)
13/12/2017 02:35 1,6 C 94 % 1021,0 hPa 0,0 mm 1,6 km/h (1 Bft) S-SE 157 0 min 0,000 mm 0,0 UV-I 0 W/m 0,7 C 1,6 C 3,2 km/h (1 Bft)
13/12/2017 02:30 1,6 C 94 % 1021,0 hPa 0,0 mm 0,0 km/h (0 Bft) S-SE 157 0 min 0,000 mm 0,0 UV-I 0 W/m 0,7 C 1,6 C 3,2 km/h (1 Bft)
13/12/2017 02:25 1,6 C 94 % 1021,0 hPa 0,0 mm 1,6 km/h (1 Bft) SE 135 0 min 0,000 mm 0,0 UV-I 0 W/m 0,7 C 1,6 C 4,8 km/h (1 Bft)
13/12/2017 02:20 1,6 C 94 % 1021,0 hPa 0,0 mm 1,6 km/h (1 Bft) S-SE 157 0 min 0,000 mm 0,0 UV-I 0 W/m 0,7 C 1,6 C 6,4 km/h (2 Bft)
13/12/2017 02:15 1,6 C 94 % 1021,1 hPa 0,0 mm 0,0 km/h (0 Bft) N 0 0 min 0,000 mm 0,0 UV-I 0 W/m 0,7 C 1,6 C 0,0 km/h (0 Bft)
13/12/2017 02:10 1,6 C 94 % 1021,0 hPa 0,0 mm 0,0 km/h (0 Bft) N 0 0 min 0,000 mm 0,0 UV-I 0 W/m 0,7 C 1,6 C 0,0 km/h (0 Bft)
13/12/2017 02:05 1,7 C 94 % 1021,0 hPa 0,0 mm 0,0 km/h (0 Bft) N 0 0 min 0,000 mm 0,0 UV-I 0 W/m 0,8 C 1,7 C 0,0 km/h (0 Bft)
13/12/2017 02:00 1,7 C 94 % 1020,9 hPa 0,0 mm 0,0 km/h (0 Bft) N 0 0 min 0,000 mm 0,0 UV-I 0 W/m 0,8 C 1,7 C 0,0 km/h (0 Bft)
13/12/2017 01:55 1,7 C 94 % 1021,1 hPa 0,0 mm 0,0 km/h (0 Bft) S-SE 147 0 min 0,000 mm 0,0 UV-I 0 W/m 0,8 C 1,7 C 0,0 km/h (0 Bft)
13/12/2017 01:50 1,7 C 94 % 1021,0 hPa 0,0 mm 0,0 km/h (0 Bft) SE 142 0 min 0,000 mm 0,0 UV-I 0 W/m 0,8 C 1,7 C 0,0 km/h (0 Bft)
13/12/2017 01:45 1,7 C 94 % 1021,1 hPa 0,0 mm 0,0 km/h (0 Bft) SE 142 0 min 0,000 mm 0,0 UV-I 0 W/m 0,8 C 1,7 C 0,0 km/h (0 Bft)
13/12/2017 01:40 1,7 C 94 % 1021,0 hPa 0,0 mm 0,0 km/h (0 Bft) SE 142 0 min 0,000 mm 0,0 UV-I 0 W/m 0,8 C 1,7 C 0,0 km/h (0 Bft)
13/12/2017 01:35 1,7 C 94 % 1021,1 hPa 0,0 mm 0,0 km/h (0 Bft) S-SE 148 0 min 0,000 mm 0,0 UV-I 0 W/m 0,8 C 1,7 C 0,0 km/h (0 Bft)
13/12/2017 01:30 1,7 C 94 % 1021,2 hPa 0,0 mm 0,0 km/h (0 Bft) S-SE 148 0 min 0,000 mm 0,0 UV-I 0 W/m 0,8 C 1,7 C 0,0 km/h (0 Bft)
13/12/2017 01:25 1,7 C 94 % 1021,3 hPa 0,0 mm 0,0 km/h (0 Bft) S-SE 157 0 min 0,000 mm 0,0 UV-I 0 W/m 0,8 C 1,7 C 0,0 km/h (0 Bft)
13/12/2017 01:20 1,6 C 94 % 1021,5 hPa 0,0 mm 0,0 km/h (0 Bft) SE 137 0 min 0,000 mm 0,0 UV-I 0 W/m 0,7 C 1,6 C 0,0 km/h (0 Bft)
13/12/2017 01:15 1,6 C 94 % 1021,5 hPa 0,0 mm 0,0 km/h (0 Bft) SE 137 0 min 0,000 mm 0,0 UV-I 0 W/m 0,7 C 1,6 C 0,0 km/h (0 Bft)
13/12/2017 01:10 1,6 C 94 % 1021,4 hPa 0,0 mm 0,0 km/h (0 Bft) SE 137 0 min 0,000 mm 0,0 UV-I 0 W/m 0,7 C 1,6 C 0,0 km/h (0 Bft)
13/12/2017 01:05 1,6 C 94 % 1021,4 hPa 0,0 mm 0,0 km/h (0 Bft) SE 137 0 min 0,000 mm 0,0 UV-I 0 W/m 0,7 C 1,6 C 0,0 km/h (0 Bft)
13/12/2017 01:00 1,6 C 94 % 1021,5 hPa 0,0 mm 0,0 km/h (0 Bft) SE 137 0 min 0,000 mm 0,0 UV-I 0 W/m 0,7 C 1,6 C 0,0 km/h (0 Bft)
13/12/2017 00:55 1,6 C 94 % 1021,6 hPa 0,2 mm 0,0 km/h (0 Bft) SE 137 0 min 0,000 mm 0,0 UV-I 0 W/m 0,7 C 1,6 C 0,0 km/h (0 Bft)
13/12/2017 00:50 1,6 C 94 % 1021,6 hPa 0,0 mm 0,0 km/h (0 Bft) SE 137 0 min 0,000 mm 0,0 UV-I 0 W/m 0,7 C 1,6 C 0,0 km/h (0 Bft)
13/12/2017 00:45 1,7 C 94 % 1021,7 hPa 0,0 mm 0,4 km/h (0 Bft) SE 137 0 min 0,000 mm 0,0 UV-I 0 W/m 0,8 C 1,7 C 1,6 km/h (1 Bft)
13/12/2017 00:40 1,6 C 94 % 1021,5 hPa 0,0 mm 1,1 km/h (1 Bft) SE 137 0 min 0,000 mm 0,0 UV-I 0 W/m 0,7 C 1,6 C 4,8 km/h (1 Bft)
13/12/2017 00:35 1,6 C 94 % 1021,5 hPa 0,0 mm 0,3 km/h (0 Bft) SE 136 0 min 0,000 mm 0,0 UV-I 0 W/m 0,7 C 1,6 C 1,6 km/h (1 Bft)
13/12/2017 00:30 1,5 C 94 % 1021,5 hPa 0,0 mm 0,9 km/h (0 Bft) SE 136 0 min 0,000 mm 0,0 UV-I 0 W/m 0,6 C 1,5 C 3,2 km/h (1 Bft)
13/12/2017 00:25 1,4 C 94 % 1021,7 hPa 0,0 mm 0,1 km/h (0 Bft) SE 137 0 min 0,000 mm 0,0 UV-I 0 W/m 0,5 C 1,4 C 1,6 km/h (1 Bft)
13/12/2017 00:20 1,4 C 94 % 1021,4 hPa 0,0 mm 0,5 km/h (0 Bft) SE 138 0 min 0,000 mm 0,0 UV-I 0 W/m 0,5 C 1,4 C 3,2 km/h (1 Bft)
13/12/2017 00:15 1,4 C 94 % 1021,3 hPa 0,0 mm 0,2 km/h (0 Bft) SE 138 0 min 0,000 mm 0,0 UV-I 0 W/m 0,5 C 1,4 C 3,2 km/h (1 Bft)
13/12/2017 00:10 1,4 C 94 % 1021,3 hPa 0,0 mm 2,5 km/h (1 Bft) SE 128 0 min 0,000 mm 0,0 UV-I 0 W/m 0,5 C 1,4 C 8,0 km/h (2 Bft)
13/12/2017 00:05 1,5 C 94 % 1021,4 hPa 0,0 mm 1,2 km/h (1 Bft) SE 146 0 min 0,000 mm 0,0 UV-I 0 W/m 0,6 C 1,5 C 6,4 km/h (2 Bft)
13/12/2017 00:00 1,5 C 94 % 1021,6 hPa 0,0 mm 0,8 km/h (0 Bft) S-SE 155 0 min 0,000 mm 0,0 UV-I 0 W/m 0,6 C 1,5 C 4,8 km/h (1 Bft)
_ Min-Heure 06:40 09:55 09:55 - 05:30 - - - - - - 07:45 06:40 05:30
Minimum _ 1,2 C 91 % 1019,3 hPa - 0,0 km/h (0 Bft) - - - - - - 0,3 C 1,2 C 0,0 km/h (0 Bft)
_ Max-Heure 09:55 07:25 00:45 00:55 08:25 - - 09:55 09:55 09:55 09:50 09:50 09:55 08:25
Maximum _ 2,6 C 94 % 1021,7 hPa 0,2 mm 3,4 km/h
S-SE (1 Bft)
- - 0 min 0,000 mm 0,0 UV-I 52 W/m 1,3 C 2,6 C 11,3 km/h
E (2 Bft)
Moyenne _ 1,6 C 94 % 1020,6 hPa #0,2 mm 1,2 km/h (1 Bft) SE - #0 min. #0,000 mm 0,0 UV-I 3 W/m 0,7 C 1,6 C 3,8 km/h (1 Bft)